Regional Weather Roundup
Issued by NWS Raleigh/Durham, NC

Home | Current Version | Previous Version | Text Only | Print | Product List | Glossary On
Versions: 1 2 3 4 5 6 7 8 9 10 11 12 13 14 15 16 17 18 19 20 21 22 23 24 25 26 27 28 29 30 31 32 33 34 35 36 37 38 39 40 41 42 43 44 45 46 47 48 49 50
000
ASUS42 KRAH 250710
RWRRAH
NORTH CAROLINA WEATHER ROUNDUP
NATIONAL WEATHER SERVICE RALEIGH NC
300 AM EDT TUE APR 25 2017

NOTE: "FAIR" INDICATES FEW OR NO CLOUDS BELOW 12,000 FEET WITH NO
SIGNIFICANT WEATHER AND/OR OBSTRUCTIONS TO VISIBILITY.

NCZ001-053-055-056-065-067-250800-
WESTERN NORTH CAROLINA

CITY           SKY/WX    TMP DP  RH WIND       PRES   REMARKS
ASHEVILLE      CLOUDY    55  52  89 N3        29.72F
JEFFERSON      DRIZZLE   49  48  99 NE7       29.74
MORGANTON      CLOUDY    55  55 100 CALM      29.75F FOG
HICKORY        NOT AVBL
RUTHERFORDTON  DRIZZLE   55  55 100 CALM      29.71F
MOUNT AIRY     NOT AVBL
BOONE          NOT AVBL
$$

NCZ021-022-025-041-071-084-088-250800-
CENTRAL NORTH CAROLINA

CITY           SKY/WX    TMP DP  RH WIND       PRES   REMARKS
CHARLOTTE      CLOUDY    54  51  90 N8        29.67F
GREENSBORO     LGT RAIN  52  52 100 NE10G20   29.67F
WINSTON-SALEM  LGT RAIN  52  49  89 NE15      29.68F
RALEIGH-DURHAM LGT RAIN  59  58  96 N12       29.62F
FORT BRAGG     LGT RAIN  61  61 100 N5        29.57F
FAYETTEVILLE   CLOUDY    63  62  97 CALM      29.58F
BURLINGTON     CLOUDY    54  53  97 N10G18    29.66F
LAURINBURG     CLOUDY    57  57 100 CALM      29.60F FOG
$$

NCZ011-015-027-028-043-044-047-080-103-250800-
NORTHEASTERN NORTH CAROLINA

CITY           SKY/WX    TMP DP  RH WIND       PRES   REMARKS
ROCKY MT-WILSO RAIN      64  64 100 NE12G18   29.61F FOG
GREENVILLE     LGT RAIN  64  64 100 E9G17     29.64F
WASHINGTON     RAIN      65  64  96 E9        29.61F
ELIZABETH CITY LGT RAIN  63  62  97 E12       29.69
MANTEO         CLOUDY    63  61  94 E14G22    29.65F
CAPE HATTERAS  LGT RAIN  69  65  86 E28G44    29.56F FOG
$$

NCZ078-087-090-091-093-098-101-250800-
SOUTHEASTERN NORTH CAROLINA

CITY           SKY/WX    TMP DP  RH WIND       PRES   REMARKS
LUMBERTON      FOG       58  58 100 NW5       29.57F VSB 1
GOLDSBORO      NOT AVBL
KINSTON        HVY RAIN  64  64  99 E5        29.60F
KENANSVILLE    LGT RAIN  64  63  94 E3        29.58F
NEW BERN       HVY RAIN  65  64  97 SW8       29.60F FOG
CHERRY POINT   NOT AVBL
BEAUFORT       RAIN      68  68 100 S3        29.56F FOG
JACKSONVILLE   LGT RAIN  65  65 100 NE10      29.54F
WILMINGTON     CLOUDY    66  66 100 CALM      29.56F
$$




USA.gov is the U.S. government's official web portal to all federal, state and local government web resources and services.